Other Public Products
Issued by NWS Grand Forks, ND

Home | Current Version | Previous Version | Text Only | Print | Product List | Glossary On
Versions: 1 2 3 4 5 6 7 8 9 10 11 12 13 14 15 16 17 18 19 20 21 22 23 24 25 26 27 28 29 30 31 32 33 34 35 36 37 38 39 40 41 42 43 44 45 46 47 48 49 50
000
FPUS83 KFGF 220131
OPUFGF
PRAIRIE TO PINES WEATHER ROUNDUP
NATIONAL WEATHER SERVICE EASTERN NORTH DAKOTA/GRAND FORKS ND
700 PM CST WED FEB 21 2018

 **SATELLITE DATA USED TO AUGMENT SKY COVER AT AUTOMATED STATIONS**
 *****  WEATHER ACROSS EASTERN NORTH DAKOTA  *****

CITY           SKY/WX    TMP DP  RH WIND       PRES   REMARKS
GRAND FORKS    FAIR       2  -4  76 SW7       30.52S WCI -11
GRND FORKS AFB FAIR       7  -3  65 SW6       30.51S WCI  -3
GRND FORKS NWS   N/A      7   1  78 SW2       30.49S
BUXTON           N/A      4   2  93 S6          N/A  WCI  -7
DEVILS LAKE    FAIR       0  -6  76 S3        30.44S
FARGO          FAIR       9   2  73 MISG      30.54R
WAHPETON ARPT  FAIR       5  -4  66 SE7       30.56R WCI  -7
$$

 *****  WEATHER ACROSS CENTRAL AND WESTERN NORTH DAKOTA  *****

CITY           SKY/WX    TMP DP  RH WIND       PRES   REMARKS
JAMESTOWN      FAIR       3  -3  76 NE3       30.44S
BISMARCK       FAIR       8  -3  61 SE6       30.39F WCI  -2
MINOT          MOCLDY     8   0  69 SE6       30.35R WCI  -2
MINOT AFB      MOCLDY     2  -4  77 SE10      30.33S WCI -14
GARRISON         N/A      3  -2  79 SE7       30.35R WCI  -9
WILLISTON      FAIR      11   0  61 SE7       30.25F WCI   0
DICKINSON      FAIR       4  -8  57 SE12      30.23S WCI -12
HETTINGER      FAIR       1  -7  68 SE7       30.26F WCI -12
$$

 *****  OTHER OBSERVATIONS NORTHEAST NORTH DAKOTA  *****

CITY           SKY/WX    TMP DP  RH WIND       PRES   REMARKS
WALHALLA       FAIR       5  -2  72 SW7       30.47S WCI  -7
LANGDON        FAIR      -2  -6  84 SW12      30.41S WCI -20
CAVALIER         N/A      3  -2  78 SW6       30.48S WCI  -8
GRAFTON        FAIR       1  -4  78 S7        30.54R WCI -11
CANDO          FAIR      -2  -6  84 S7        30.44R WCI -16
FORT TOTTEN    NOT AVBL
ROLLA          FAIR       0  -6  78 S7        30.37S WCI -13
RUGBY          FAIR       1  -4  78 SE7       30.40S WCI -11
 ***** THE ABOVE OBSERVATIONS ARE NON NWS ARE NOT QUALITY
        CONTROLLED AND MAY MIS-REPORT RAIN FOR SNOW...
$$

 *****  OTHER OBSERVATIONS SOUTHEAST NORTH DAKOTA *****

CITY           SKY/WX    TMP DP  RH WIND       PRES   REMARKS
COOPERSTOWN    FAIR       3  -2  78 S6        30.47S WCI  -8
VALLEY CITY    FAIR       5   1  85 S6        30.49S WCI  -6
OAKES            N/A     -2  -8  78 S9        30.51R WCI -18
GWINNER          N/A     -2  -6  84 SW9       30.51R WCI -18
SHEYENNE NWR     N/A      3  -3  77 CALM      29.95S
BUFFALO          N/A      7  -3  65 NW6         N/A  WCI  -4
WYNDMERE       NOT AVBL
 ***** THE ABOVE OBSERVATIONS ARE NON NWS ARE NOT QUALITY
       CONTROLLED AND MAY MIS-REPORT RAIN FOR SNOW...
$$

  *****  WEATHER ACROSS NORTHERN MINNESOTA  *****

CITY           SKY/WX    TMP DP  RH WIND       PRES   REMARKS
FLAG ISLAND    FAIR       3  -4  72 SW13      30.46R WCI -14
WARROAD        FAIR       1  -6  71 S3        30.49S
ROSEAU         FAIR       3  -2  78 S7        30.49S WCI  -9
HALLOCK        FAIR       1  -6  71 SW7       30.50R WCI -11
THF RVR FALLS  FAIR       0  -5  79 SW9       30.52S WCI -15
HALSTAD        NOT AVBL
FOSSTON        FAIR      -8 -11  84 S7        30.51S WCI -22
BAUDETTE       FAIR       6  -5  60 W5        30.47S WCI  -3
WASKISH        FAIR       1  -6  71 W8        30.50S WCI -12
CROOKSTON      FAIR       1  -4  78 S10       30.55R WCI -14
$$
  *****  WEATHER ACROSS CENTRAL AND WEST MINNESOTA  *****

CITY           SKY/WX    TMP DP  RH WIND       PRES   REMARKS
BEMIDJI        FAIR      12  -4  47 SW5       30.50R WCI   4
PARK RAPIDS    FAIR       4  -7  60 SW7       30.51R WCI  -8
WADENA         FAIR       7  -2  66 CALM      30.53F
DETROIT LAKES  FAIR       9  -4  56 S5        30.53S WCI   0
MOORHEAD       FAIR       3  -4  72 S8        30.55S WCI -10
FERGUS FALLS   FAIR       9   0  66 SE6       30.55F WCI  -1
ELBOW LAKE     FAIR       4  -1  79 E3        30.55S
MORRIS MN      FAIR       5  -2  72 S7        30.56S WCI  -7
STAPLES        FAIR       9  -4  56 S3        30.55S
WHEATON        FAIR       7  -2  66 SE5       30.58R WCI  -2
$$
  *****  WEATHER ELSEWHERE ACROSS MINNESOTA  *****

CITY           SKY/WX    TMP DP  RH WIND       PRES   REMARKS
DULUTH         FAIR      16   2  54 SW9       30.53R WCI   4
INTRNTL FALLS  FAIR      13  -1  54 W8        30.47R WCI   2
ELY            FAIR       7   0  72 CALM      30.49S
CLOQUET        FAIR      16   0  48 SW5       30.55R WCI   9
BRAINERD       FAIR      11  -1  58 S7        30.56R WCI   0
HIBBING        FAIR       7   0  73 CALM      30.50R
ALEXANDRIA     FAIR       8  -2  63 S5        30.55R WCI   0
SAINT CLOUD    FAIR      10  -1  61 SE3       30.60R
MINNEAPOLIS    FAIR      17   4  56 SW6       30.65R WCI   9
$$

  *****  WEATHER ACROSS SOUTH DAKOTA  *****

CITY           SKY/WX    TMP DP  RH WIND       PRES   REMARKS
SIOUX FALLS    MOCLDY    14   3  61 SE6       30.56R WCI   5
BROOKINGS      MOCLDY    11   2  67 S9        30.54R WCI  -2
WATERTOWN      FAIR       9   0  67 S5        30.49S WCI   1
HURON          FAIR      12   3  67 SE12      30.51R WCI  -2
SISSETON         N/A      9  -2  61 E6        30.54R WCI  -1
ABERDEEN       FAIR      -2  -5  87 SE3       30.51S
MITCHELL       MOCLDY    14   5  67 SE13      30.53S WCI   0
PIERRE         FAIR       8   2  76 E10       30.38R WCI  -6
MOBRIDGE       FAIR       3  -6  66 SE9       30.36S WCI -12
RAPID CITY     FAIR      10   1  67 S10       30.20S WCI  -4
$$

  *****  SOME WEATHER IN NEARBY STATES *****

CITY           SKY/WX    TMP DP  RH WIND       PRES   REMARKS
GLASGOW MT     FAIR      -7 -12  79 E10       30.17S WCI -25
GREAT FALLS MT FAIR      10  -1  61 SW13      29.97S WCI  -5
CHEYENNE WY    FAIR      17   8  67 S8        30.08R WCI   7
SCOTTSBLUFF NE FAIR      16   9  74 E8        30.19S WCI   5
OMAHA NE       MOCLDY    25  14  63 E7        30.56F WCI  17
DES MOINES IA  CLOUDY    24  15  68 NE8       30.60S WCI  15
DAVENPORT IA   FAIR      27  18  69 NE8       30.64F WCI  19
CHICAGO IL     CLOUDY    29  19  66 NE12      30.62R WCI  19
EAU CLAIRE WI  FAIR      12   3  67 CALM      30.65R
LA CROSSE WI   FAIR      22  14  71 CALM      30.68R
$$

  *****  SOME NATIONAL WEATHER *****

CITY           SKY/WX    TMP DP  RH WIND       PRES   REMARKS
LA GUARDIA NY  LGT RAIN  66  53  63 NW15      30.29R
RALEIGH NC     FAIR      66  61  84 SE5       30.40S
ATLANTA GA     FAIR      72  65  78 SE7       30.35S
NEW ORLEANS LA MOCLDY    77  73  87 SE12      30.21R
OKLAHOMA CITY  CLOUDY    24  22  91 N14       30.34S WCI  12
ALBUQUERQUE NM MOCLDY    47  24  40 SE16      29.99S
SALT LAKE CITY FAIR      28  12  51 W6        30.09S WCI  22
LOS ANGELES CA FAIR      57  32  38 W20       30.12R
BOISE ID       CLOUDY    33  15  47 NW9       30.08F
SEATTLE WA     CLOUDY    32  26  78 SE9       30.22F WCI  24
$$

*** WEATHER ACROSS MANITOBA...SASKATCHEWAN AND ONTARIO ***
                ***ONTARIO***

CITY           SKY/WX    TMP DP  RH WIND       PRES   REMARKS
GERALDTON      NOT AVBL
THUNDER BAY    NOT AVBL
SIOUX LOOKOUT  NOT AVBL
TORONTO        NOT AVBL
BIG TROUT LK   NOT AVBL
PICKLE LAKE    NOT AVBL
DRYDEN         NOT AVBL
KENORA         NOT AVBL
$$
                *** MANITOBA***

CITY           SKY/WX    TMP DP  RH WIND       PRES   REMARKS
BRANDON        NOT AVBL
DAUPHIN        NOT AVBL
ISLAND LAKE    NOT AVBL
PILOT MOUND    NOT AVBL
THE PAS        NOT AVBL
THOMPSON       NOT AVBL
WINNIPEG       NOT AVBL
$$
                ***SASKATCHEWAN***

CITY           SKY/WX    TMP DP  RH WIND       PRES   REMARKS
ESTEVAN        NOT AVBL
KINDERSLEY     NOT AVBL
LLOYDMINSTER   NOT AVBL
PRINCE ALBERT  NOT AVBL
REGINA         NOT AVBL
YORKTON        NOT AVBL
N. BATTLEFORD  NOT AVBL
LA RONGE       NOT AVBL
SASKATOON      NOT AVBL



USA.gov is the U.S. government's official web portal to all federal, state and local government web resources and services.